RH
99 93 93 97 98 96 93 94 92 93 91 88 94 85 88 82 84 82 83 85 90 90 89 88 87 87 87 86 84 81 76 75
98 95 95 96 97 98 97 94 93 94 93 93 92 90 85 81 89 84 82 89 90 89 87 87 87 87 86 84 82 78 69 73
99 100 99 97 96 96 98 94 94 93 92 90 92 92 94 88 92 88 87 90 90 85 85 88 88 87 86 84 76 73 69 74
99 99 99 99 99 99 99 95 95 94 92 91 90 92 92 89 89 93 87 90 87 84 88 89 86 85 82 79 74 76 74 80
98 97 99 97 98 99 99 98 98 96 94 92 93 94 93 94 95 95 93 89 83 82 89 83 86 84 87 84 79 79 82 79
96 96 98 97 99 99 99 99 98 98 95 95 97 96 95 94 97 96 96 90 86 91 85 86 84 81 83 81 82 84 86 83
92 97 97 96 98 99 99 99 98 96 97 93 96 95 96 95 97 97 95 93 86 88 81 82 82 78 82 80 80 85 87 86
95 97 94 97 98 98 98 99 99 98 97 95 94 94 96 96 97 97 97 92 85 79 75 76 76 78 82 78 80 86 87 87
96 97 96 99 98 98 97 98 98 98 98 95 94 93 95 92 94 96 96 87 82 80 78 76 77 75 79 79 82 84 87 88
90 85 98 99 99 97 97 98 95 96 97 96 94 91 93 94 94 95 93 86 78 74 75 79 80 83 85 83 81 83 83 87
94 92 97 99 99 96 96 98 98 98 97 97 95 89 87 94 95 95 90 83 79 74 77 76 81 82 84 85 90 86 83 80
93 95 98 98 94 96 99 99 98 98 98 96 94 93 91 98 96 95 89 80 83 76 76 86 86 84 74 87 94 91 87 87
94 96 98 94 96 97 99 99 99 99 99 95 95 91 92 96 94 91 86 82 78 76 77 83 94 90 91 94 95 94 91 91
96 97 95 94 94 96 92 96 99 99 99 98 97 96 95 93 89 86 77 78 84 81 71 84 90 84 92 93 96 92 93 89
93 94 92 97 93 96 99 98 99 100 99 99 98 97 95 94 89 84 72 73 78 77 75 77 84 87 79 86 96 96 95 93
95 97 90 86 88 90 97 96 98 96 99 99 98 97 96 91 88 82 73 74 80 78 74 70 78 80 82 74 75 81 94 93
97 98 92 88 88 86 97 96 94 96 99 99 99 98 94 92 92 85 82 83 85 86 90 84 80 79 81 81 79 85 84 90
95 89 88 88 91 85 96 93 94 99 99 99 99 99 98 93 93 94 94 92 91 91 91 86 86 84 74 80 83 85 83 86
82 85 86 84 93 90 91 95 94 96 96 97 98 98 98 98 94 95 91 88 94 94 93 90 90 89 88 86 84 82 84 81
87 89 86 90 88 93 96 96 97 97 96 95 94 95 96 98 95 94 89 96 96 94 95 97 96 97 95 92 89 85 87 88
Wind_Speed
5 9 10 11 10 13 14 14 15 12 9 9 12 7 14 14 13 15 13 19 21 22 20 20 20 18 18 17 15 15 10 8
6 9 7 7 7 9 5 6 8 21 20 21 21 16 6 8 10 13 17 19 20 22 21 20 18 17 16 16 14 14 9 9
6 5 5 4 4 6 10 15 20 22 20 23 21 14 10 9 11 12 21 20 19 20 19 19 18 16 15 14 12 4 7 5
6 5 5 5 3 4 7 12 10 11 12 14 11 16 15 14 13 15 18 20 19 20 20 18 13 7 7 10 5 5 4 5
7 7 6 7 5 4 4 5 6 7 10 10 7 6 8 9 6 5 8 15 8 12 13 8 9 7 4 4 6 5 3 3
8 7 7 7 4 3 4 7 7 6 9 11 8 7 9 8 5 7 7 7 9 7 7 7 8 8 8 8 6 5 3 3
12 9 7 6 6 4 4 6 7 8 8 11 8 9 9 7 7 7 8 6 8 6 7 8 6 8 6 9 8 6 5 3
11 10 8 7 6 7 4 4 5 6 7 9 8 7 7 7 7 8 7 8 7 8 8 8 8 8 8 8 8 6 5 4
12 9 9 8 7 7 5 3 4 4 5 8 10 9 9 8 8 9 8 8 10 7 6 6 7 6 8 7 7 6 5 5
13 11 9 8 7 6 5 5 6 5 5 6 11 10 9 10 9 10 9 9 9 8 8 7 6 7 6 5 5 6 6 6
14 10 9 8 7 5 4 5 5 5 7 7 11 13 13 11 10 9 10 10 9 8 5 9 7 7 7 5 5 5 7 6
12 9 9 7 7 5 4 3 4 4 6 9 13 10 13 7 9 10 10 10 8 8 9 3 5 7 7 5 3 3 3 5
13 12 10 9 7 5 4 3 2 3 5 13 13 13 13 12 9 11 10 11 12 11 7 8 3 5 7 4 4 2 2 2
13 12 12 9 5 3 3 3 2 1 2 6 9 12 12 13 13 11 11 10 11 11 12 5 3 7 4 4 3 1 1 4
14 14 12 7 8 5 3 3 3 1 4 5 7 9 10 10 10 9 9 9 10 12 11 8 7 6 8 5 4 4 3 2
13 12 13 11 8 7 6 4 4 2 2 3 6 9 9 10 11 9 8 7 9 10 8 8 7 10 1 1 2 5 4 2
11 11 12 10 10 9 5 5 3 3 4 5 4 6 10 11 8 10 9 7 8 10 7 5 4 7 4 3 1 1 2 4
12 12 11 10 9 11 7 8 6 5 4 4 4 3 5 13 12 10 7 8 8 7 5 6 5 5 7 4 4 4 4 3
14 14 14 13 9 10 9 6 7 7 7 5 6 5 3 8 16 13 11 10 6 6 6 5 5 5 6 4 2 3 2 4
16 15 15 11 11 9 6 6 4 4 5 5 6 4 5 5 10 12 11 8 9 6 6 4 5 5 6 5 4 4 3 2
Wind_Direction
165 187 187 180 184 182 184 183 174 164 151 154 127 148 133 205 186 159 154 137 141 135 134 134 134 129 124 117 118 120 116 117
164 187 183 181 191 181 167 163 161 121 127 123 125 96 330 189 190 163 145 146 145 133 138 139 132 127 124 125 123 114 115 109
156 163 152 162 176 199 186 146 144 146 145 146 139 144 177 213 218 174 151 146 141 134 138 135 131 125 122 121 112 106 111 105
155 156 153 156 158 169 152 151 151 152 156 166 158 167 172 184 223 186 169 143 139 135 133 130 123 125 126 111 110 96 110 104
171 164 151 165 162 164 136 143 148 159 166 176 188 172 166 175 205 177 180 137 130 129 130 136 136 132 108 113 116 111 100 107
171 162 161 158 162 156 141 148 159 172 178 176 175 171 178 176 168 166 160 146 134 130 137 134 139 130 130 126 122 117 128 127
183 160 165 158 162 151 153 154 165 170 174 176 178 176 174 169 164 148 148 147 137 122 127 134 127 130 137 135 137 131 131 134
174 171 166 156 166 157 169 158 152 159 176 177 181 176 178 168 155 152 141 152 141 132 143 145 143 146 145 147 143 141 135 138
173 166 156 170 170 154 161 175 158 166 178 179 183 183 186 177 162 152 151 152 138 120 135 140 139 151 147 148 146 144 134 132
177 178 160 164 157 155 154 169 185 184 197 198 195 199 189 177 169 158 154 151 148 146 150 141 146 138 144 156 139 145 144 148
174 173 162 157 144 140 152 167 184 181 183 195 201 200 202 176 165 147 156 147 156 152 146 147 148 146 150 144 136 159 155 154
168 165 151 144 151 146 141 166 193 197 204 197 195 197 192 184 140 140 152 145 146 154 154 100 142 149 140 107 90 124 140 160
168 166 158 164 157 145 154 165 170 212 229 211 186 196 193 155 139 148 161 149 161 158 144 138 86 129 111 71 44 52 102 155
174 170 170 172 167 125 143 152 149 141 99 118 127 126 138 140 144 150 163 143 152 162 160 135 112 165 138 115 133 73 204 203
178 171 170 158 131 120 106 105 97 118 125 133 140 133 129 117 130 150 154 156 160 171 165 158 152 198 174 141 138 189 147 167
172 163 171 175 155 162 158 169 143 159 105 124 134 141 142 141 141 148 163 150 159 178 181 177 151 176 164 303 86 141 168 172
156 157 171 167 175 181 160 144 129 115 109 116 126 143 156 148 153 157 163 152 164 170 166 161 143 170 158 140 109 62 93 134
160 168 177 172 176 184 165 159 145 133 131 150 145 143 162 172 164 155 150 141 158 162 156 166 165 148 192 173 172 168 179 143
170 175 184 182 178 177 184 171 154 152 156 162 165 167 154 194 166 166 166 174 148 147 156 159 170 159 160 183 167 212 172 166
170 175 177 171 176 169 165 162 152 151 163 156 169 168 168 148 175 163 174 146 160 162 158 157 173 196 180 182 170 187 166 291